Retour au catalogue

CENTISPACE-1 S9

ActifNavigationLEO
NORAD 62578·PAYLOAD·🇨🇳 China

Lancé Jan 13, 2025 depuis Yellow Sea Launch Area

Loading…

Prochains Passages (prochaines 24 heures)

TLE

FraisSource: Space-Track

Époque: Sep 14, 2026, 14:17 UTC

1 62578U 25007D   26257.59558238 -.00000054  00000-0  82007-4 0  9990
2 62578  54.9844 339.6382 0009449 246.6140 113.3823 13.80622079 87067

Suivez CENTISPACE-1 S9 en temps réel avec AllMySat

Download on the App Store